Probability
0 0 0 0 0 0 0 0 0 0 0 0 0 0 0 1 1 1 0 0 0 0 0 0 1 1 1 0 0 0 0 0 0 0 0 0 0 0 0 0 0 0 0 0
0 0 0 0 0 0 0 0 0 0 0 0 0 0 0 0 0 0 0 0 0 0 0 1 1 1 0 0 0 0 0 0 0 0 0 0 0 0 0 0 0 0 0 0
0 0 0 0 0 0 0 0 0 0 0 0 0 0 0 0 0 0 0 0 0 0 0 1 2 1 0 0 0 0 0 0 0 0 0 0 0 0 0 0 0 0 0 0
0 0 0 0 0 0 0 0 0 0 0 0 0 0 0 0 0 0 0 0 0 0 1 1 2 2 1 0 0 0 0 0 0 0 0 0 0 0 0 0 0 0 0 0
0 0 0 0 0 0 0 0 0 0 0 0 0 0 0 0 0 0 0 0 0 1 2 3 3 3 1 0 0 0 0 0 0 0 0 0 0 0 0 0 0 0 0 0
0 0 0 0 0 0 0 0 0 0 0 0 0 0 0 0 0 0 0 0 0 1 2 3 4 4 2 0 0 0 0 0 0 0 0 0 0 0 0 0 0 0 0 0
0 0 0 0 0 0 0 0 0 0 0 0 0 0 0 0 0 0 0 0 0 1 2 3 5 5 4 2 0 0 0 0 0 0 0 0 0 0 0 0 0 0 0 0
0 0 0 0 0 0 0 0 0 0 0 0 0 0 0 0 0 0 0 0 0 0 1 2 4 4 4 3 1 0 0 0 0 0 0 0 0 0 0 0 0 0 0 0
0 0 0 0 0 0 0 0 0 0 0 0 0 0 0 0 0 0 0 0 0 0 0 1 2 4 4 3 1 0 0 0 0 0 0 0 0 0 0 0 0 0 0 0
0 0 0 0 0 0 0 0 0 0 0 0 0 0 0 0 0 0 0 0 0 0 0 0 2 3 4 3 2 1 0 0 0 0 0 0 0 0 0 0 0 0 0 0
0 0 0 0 0 0 0 0 0 0 0 0 0 0 0 0 0 0 0 0 0 0 0 0 1 3 3 3 2 1 0 0 0 0 0 0 0 0 0 0 0 0 0 0
0 0 0 0 0 0 0 0 0 0 0 0 0 0 0 0 0 0 0 1 1 1 0 0 1 2 3 3 1 0 0 0 0 0 0 0 0 0 0 0 0 0 0 0
0 0 0 0 0 0 0 0 0 0 0 0 0 0 0 0 0 0 0 1 2 2 1 0 0 1 3 3 1 0 0 0 0 0 0 0 0 0 0 0 0 0 0 0
0 0 0 0 0 0 0 0 0 0 0 0 0 0 0 0 0 0 0 1 2 2 2 1 0 1 2 3 2 1 0 0 0 0 0 0 0 0 0 0 0 0 0 0
0 0 0 0 0 0 0 0 0 0 0 0 0 0 0 0 0 0 0 0 1 1 1 1 0 1 2 3 2 1 0 0 0 0 0 0 0 0 0 0 0 0 0 0
0 0 0 0 0 0 0 0 0 0 0 0 0 0 0 0 0 0 0 0 0 0 0 0 0 1 2 2 1 0 0 0 0 0 0 0 0 0 0 0 0 0 0 0
0 0 0 0 0 0 0 0 0 0 0 0 0 0 0 0 0 0 0 0 0 0 0 0 0 0 1 1 1 0 0 0 0 0 1 1 1 0 0 0 0 0 0 0
0 0 0 0 0 0 0 0 0 0 0 0 0 0 0 0 0 0 0 0 0 0 0 0 0 0 0 0 0 0 0 0 0 0 0 0 0 0 1 1 1 1 0 0
0 0 0 0 0 0 0 0 0 0 0 0 0 0 0 0 0 0 0 0 0 0 0 0 0 0 0 0 0 0 0 0 0 0 0 0 0 0 1 2 1 1 1 1
0 0 0 0 0 0 0 0 0 0 0 0 0 0 0 0 0 0 0 0 0 0 0 0 0 0 0 0 0 0 0 0 0 0 0 0 0 0 1 1 1 1 1 1
0 0 0 0 0 0 0 0 0 0 0 0 0 0 0 0 0 0 0 0 0 0 0 0 0 0 0 0 0 0 0 0 0 0 0 0 0 0 0 1 1 1 0 1
0 0 0 0 0 0 0 0 0 0 0 0 0 0 0 0 0 0 0 0 0 0 0 0 0 0 0 0 0 0 0 0 0 0 1 1 0 0 0 0 0 0 0 0
0 0 0 0 0 0 0 0 0 0 0 0 0 0 0 0 0 0 0 0 0 0 0 0 0 0 0 0 0 0 0 0 0 0 1 2 1 1 0 0 0 0 0 0
0 0 0 0 0 0 0 0 0 0 0 0 0 0 0 0 0 0 0 0 0 0 0 0 0 0 0 0 0 1 0 0 0 0 1 2 2 2 1 0 0 0 0 0
0 0 0 0 0 0 0 0 0 0 0 0 0 0 0 0 0 0 0 0 0 0 0 0 0 0 0 0 0 0 0 0 0 0 0 1 1 2 1 0 0 0 0 0
0 0 0 0 0 0 0 0 0 0 0 0 0 0 0 0 0 0 0 0 0 0 0 0 0 0 0 0 0 0 0 0 0 0 0 0 0 1 1 0 0 0 0 0
Wind_Speed
4 6 6 5 5 4 3 4 5 3 1 5 8 8 7 7 10 10 10 11 11 10 9 8 8 8 7 7 6 6 7 6 5 3 3 3 3 3 3 3 4 3 2 3
6 6 4 3 4 5 6 6 5 3 1 5 7 9 7 7 11 11 11 12 12 11 10 9 9 9 9 9 7 7 6 6 5 3 2 2 3 2 3 2 3 3 2 2
7 2 4 6 6 7 7 7 5 4 3 5 7 7 6 6 8 9 10 11 12 12 12 12 11 10 9 9 9 6 6 6 5 5 3 3 3 3 3 3 2 2 2 3
5 4 5 7 7 7 6 4 5 5 6 3 3 5 3 5 7 9 11 12 12 12 12 11 11 11 11 10 9 8 8 7 6 6 4 4 3 3 3 2 2 3 3 3
5 6 7 7 5 6 2 2 4 5 7 7 6 7 3 3 6 7 9 11 13 13 13 12 12 11 10 10 8 8 8 7 7 6 5 4 3 3 3 2 3 3 3 3
4 3 5 4 2 4 4 4 4 4 6 7 4 7 4 2 4 5 6 9 11 12 12 12 11 10 10 9 9 8 9 8 7 7 7 5 5 4 4 4 3 3 3 3
7 7 5 4 5 6 7 5 4 5 5 3 1 5 4 2 2 4 4 5 8 10 12 13 13 13 12 11 11 10 10 9 8 7 6 6 5 5 4 3 3 3 3 3
8 7 7 7 7 5 7 7 4 3 3 2 3 5 1 1 2 2 2 3 7 10 11 12 13 13 12 12 11 11 11 10 9 8 7 6 5 3 2 3 3 3 2 3
7 5 5 5 5 7 7 7 5 6 5 5 4 2 2 1 1 1 1 3 6 9 11 12 12 13 13 12 12 12 11 10 10 9 7 6 6 4 4 4 4 3 3 3
5 5 5 5 5 3 5 5 5 6 5 5 4 4 2 1 1 1 1 3 5 8 10 11 12 12 12 11 11 11 11 11 10 9 7 5 5 5 4 4 4 4 4 4
6 6 6 7 9 8 7 8 7 5 5 5 4 1 1 2 2 2 1 2 4 7 8 9 10 11 11 11 11 11 11 11 10 9 8 7 6 5 5 4 4 4 5 5
7 6 6 7 4 5 8 8 9 7 5 6 5 2 3 2 3 2 1 2 4 5 7 8 10 11 11 12 11 11 11 11 10 9 9 8 7 6 6 6 5 5 5 4
8 7 6 6 7 7 8 8 9 8 7 7 7 3 3 2 2 1 2 2 4 5 7 8 9 10 11 11 11 11 11 11 10 10 9 8 8 7 7 7 6 5 5 5
7 8 8 7 3 5 8 9 10 11 8 8 9 8 4 3 2 2 3 3 4 5 6 8 9 10 11 11 12 12 12 11 11 10 10 9 8 8 7 6 6 6 5 5
8 10 9 8 5 7 9 11 12 14 13 11 9 9 8 6 4 4 3 3 4 5 6 8 9 9 10 11 11 12 11 11 11 11 10 9 8 8 7 7 6 5 5 5
9 9 9 10 7 8 10 11 13 14 13 13 12 11 6 6 5 5 5 5 6 6 7 7 9 10 11 12 12 12 12 12 12 11 11 9 9 9 8 7 7 6 5 4
9 9 9 9 7 8 11 11 12 12 11 11 11 8 5 5 5 6 6 6 7 7 7 8 9 10 10 12 13 13 13 12 12 12 11 10 10 9 9 8 7 6 6 5
9 10 7 7 8 11 5 4 7 9 10 10 10 8 6 6 6 6 5 6 7 7 7 8 9 9 10 11 11 12 12 12 12 12 11 10 10 10 9 8 8 7 6 5
10 9 7 7 9 9 5 5 7 9 9 8 9 8 6 4 4 5 4 5 6 6 6 7 7 8 10 10 11 12 13 13 13 12 12 11 11 10 10 9 8 7 6 6
9 10 8 9 10 9 5 3 4 7 8 5 7 6 5 5 5 3 2 3 4 4 4 5 6 7 9 10 11 12 13 13 13 12 12 11 11 10 10 9 8 7 6 5
11 11 12 11 10 8 2 3 6 8 2 2 5 6 6 6 4 1 1 2 3 3 4 5 7 7 8 10 11 12 13 13 11 11 10 10 10 10 9 8 7 7 6 6
12 10 12 11 11 8 5 6 6 2 1 2 3 4 5 4 2 1 1 2 2 3 4 5 7 7 8 9 11 12 12 11 10 10 10 10 10 9 8 8 7 7 7 6
11 9 6 8 6 1 5 5 3 3 3 2 3 3 3 3 3 2 2 2 2 3 4 5 6 7 8 9 9 10 9 10 11 11 10 10 10 9 8 8 8 7 7 6
7 6 8 8 7 6 5 4 4 4 5 3 3 3 4 3 3 2 2 2 2 3 4 5 7 8 8 8 8 8 8 10 11 11 11 10 9 9 8 6 6 6 6 6
7 7 9 10 6 6 7 5 4 4 4 3 3 3 4 3 3 3 2 2 2 3 4 5 6 6 7 8 7 7 8 10 11 11 10 10 9 8 8 6 4 5 4 4
8 8 9 8 6 6 6 4 4 4 4 4 3 3 2 3 3 3 2 3 3 4 5 6 6 6 7 7 7 7 8 10 10 9 9 8 7 7 7 7 5 5 3 5
Wind_Direction
189 212 207 204 225 254 247 248 258 273 267 255 257 260 247 205 213 215 208 204 201 197 188 181 183 179 174 175 174 159 156 154 153 153 154 142 125 119 106 83 76 84 84 90
195 215 214 207 205 220 230 245 259 254 231 262 274 270 257 221 220 219 215 208 204 199 190 184 187 186 183 179 181 174 163 162 165 162 151 141 130 117 98 104 95 81 81 81
218 150 176 201 205 220 232 246 262 274 274 241 277 261 231 217 220 221 223 219 209 201 197 189 188 188 186 183 185 177 167 167 167 161 151 149 139 145 139 123 99 73 70 75
220 199 201 213 217 231 237 239 253 257 263 259 271 286 233 216 212 215 216 214 212 204 201 192 188 185 188 183 180 177 173 171 164 167 171 166 164 154 134 128 120 115 94 83
197 200 212 224 223 226 248 213 235 253 267 268 240 266 261 199 234 226 215 211 210 205 201 194 190 185 184 175 176 176 170 169 168 176 168 178 171 155 142 142 133 127 106 95
220 205 232 228 202 207 175 187 192 227 253 256 253 257 273 220 259 255 222 210 205 202 198 195 188 182 176 172 173 171 171 171 168 177 179 183 171 169 160 160 149 147 133 122
205 200 195 199 184 175 205 225 226 218 220 247 192 252 269 327 294 276 256 215 198 194 193 190 185 184 179 176 175 173 174 173 173 181 186 182 182 179 172 162 158 159 146 135
206 201 193 202 215 204 208 231 255 270 272 274 208 249 281 13 301 276 258 216 190 189 190 190 187 187 183 180 179 179 179 176 175 182 185 183 175 188 169 167 162 161 150 134
210 194 164 197 218 219 208 223 262 278 276 268 240 250 247 195 250 267 216 181 185 186 188 188 186 187 185 182 181 183 180 178 178 183 182 179 178 179 172 172 168 157 144 137
231 213 173 169 180 203 250 203 207 239 265 264 263 258 254 189 278 301 203 190 181 180 185 186 184 186 186 182 181 182 182 180 179 179 177 174 177 174 174 169 166 157 147 143
224 221 178 188 211 199 186 200 219 234 255 274 279 268 65 278 290 297 268 190 181 179 180 182 180 181 180 178 178 180 182 182 178 178 175 174 174 177 172 171 160 164 155 160
209 236 214 206 202 239 221 218 218 231 235 249 273 276 106 277 286 285 253 171 172 175 175 178 177 177 177 179 180 183 182 180 178 176 175 177 171 178 177 169 169 171 160 155
187 224 219 192 190 199 216 218 223 236 245 238 247 256 115 264 260 225 205 171 168 170 170 172 176 180 180 181 182 182 183 179 175 175 177 177 175 180 178 169 166 173 162 161
209 227 234 239 249 207 219 216 218 225 237 243 246 267 270 268 271 222 203 186 173 174 175 176 179 183 183 183 185 181 182 178 174 176 181 179 179 180 179 170 170 171 165 170
216 233 234 250 260 233 236 229 220 228 242 254 262 267 273 275 274 251 219 194 190 187 186 185 185 185 184 183 186 182 180 177 176 179 184 182 179 176 175 166 168 171 168 170
213 232 230 234 233 240 243 235 227 231 242 251 263 268 276 274 259 235 214 208 211 206 200 193 191 188 187 184 186 181 180 179 180 182 183 177 178 174 173 173 169 168 166 166
205 223 229 236 230 247 240 231 226 226 233 241 249 259 262 260 251 242 221 213 219 213 206 199 194 194 190 188 187 185 181 179 181 183 181 176 179 174 175 172 169 167 167 163
218 220 227 239 230 237 239 207 225 226 231 236 248 260 252 255 258 249 231 215 223 216 208 204 200 198 194 189 186 182 178 180 182 182 181 178 178 176 174 172 171 170 167 161
228 221 223 227 235 247 232 213 214 223 233 229 237 248 249 254 236 215 213 223 224 217 206 203 203 197 190 185 181 177 179 180 181 182 181 180 179 176 175 176 176 172 167 164
209 220 227 224 231 238 218 169 205 227 230 214 223 231 225 218 231 210 197 225 226 214 200 194 189 184 183 179 174 176 179 180 183 182 180 177 176 175 175 177 176 170 167 166
188 202 216 225 234 243 226 166 188 218 224 173 215 223 214 221 252 274 214 218 211 204 193 181 177 176 174 171 172 177 178 182 180 174 172 172 174 174 172 170 169 168 166 164
197 201 209 216 225 225 154 172 204 262 13 193 212 219 223 233 252 247 220 201 190 178 178 176 172 170 166 169 175 177 180 177 169 167 169 171 172 171 164 163 166 169 167 164
211 212 213 219 227 172 171 201 232 287 268 250 230 220 216 222 227 232 220 188 175 169 172 171 168 163 162 168 177 180 176 168 165 166 168 170 170 167 163 164 167 169 173 175
204 209 221 224 222 215 214 216 236 250 261 261 240 224 220 221 219 218 208 178 170 168 163 163 165 165 162 165 173 177 164 166 167 167 167 167 167 162 162 165 170 172 176 179
205 197 218 229 226 217 219 224 242 250 257 245 232 229 222 211 210 201 187 172 173 165 159 160 162 162 162 162 163 163 162 167 167 166 165 165 164 161 159 158 160 178 175 185
204 209 213 223 212 224 222 222 240 243 242 236 227 226 218 209 203 196 180 167 167 164 157 157 158 160 160 160 157 157 162 167 167 164 164 165 163 160 159 155 140 75 79 101